| time (UTC) | temp F | wind direction | speed MPH | gust MPH | rain 1hr in | rain 24hr in | rain mn in | humidity % | barometer mb |
| 20260505124520 | 55 | 17 | 4.0 | 10.0 | 0.01 | 0.02 | 0.02 | 96 | 989.2 |
| 20260505123521 | 55 | 43 | 5.0 | 13.0 | 0.01 | 0.02 | 0.02 | 96 | 989.1 |
| 20260505122517 | 55 | 29 | 5.0 | 12.0 | 0.01 | 0.02 | 0.02 | 95 | 989.1 |
| 20260505121518 | 55 | 32 | 5.0 | 10.0 | 0.00 | 0.02 | 0.01 | 95 | 989.2 |
| 20260505120519 | 55 | 36 | 6.0 | 10.0 | 0.00 | 0.02 | 0.01 | 95 | 989.3 |
| 20260505115520 | 55 | 47 | 5.0 | 10.0 | 0.00 | 0.02 | 0.01 | 95 | 989.3 |
| 20260505114536 | 55 | 33 | 4.0 | 8.0 | 0.00 | 0.02 | 0.01 | 95 | 989.3 |
| 20260505113517 | 55 | 34 | 4.0 | 11.0 | 0.00 | 0.02 | 0.01 | 95 | 989.4 |
| 20260505112518 | 55 | 24 | 3.0 | 9.0 | 0.00 | 0.02 | 0.01 | 96 | 989.4 |
| 20260505111519 | 55 | 26 | 5.0 | 9.0 | 0.00 | 0.02 | 0.01 | 96 | 989.6 |
| 20260505110520 | 55 | 40 | 6.0 | 10.0 | 0.00 | 0.02 | 0.01 | 96 | 989.7 |
| 20260505101521 | 54 | 44 | 5.0 | 10.0 | 0.00 | 0.02 | 0.01 | 97 | 990.1 |
| 20260505100516 | 54 | 50 | 3.0 | 7.0 | 0.00 | 0.02 | 0.01 | 97 | 990.0 |
| 20260505095517 | 54 | 43 | 5.0 | 8.0 | 0.00 | 0.02 | 0.01 | 97 | 990.1 |
| 20260505094519 | 55 | 34 | 3.0 | 12.0 | 0.00 | 0.02 | 0.01 | 97 | 990.1 |
| 20260505093519 | 55 | 38 | 3.0 | 8.0 | 0.00 | 0.02 | 0.01 | 97 | 990.1 |
| 20260505092520 | 55 | 48 | 4.0 | 8.0 | 0.00 | 0.02 | 0.01 | 97 | 990.0 |
| 20260505091537 | 55 | 39 | 5.0 | 8.0 | 0.00 | 0.02 | 0.01 | 97 | 990.1 |
| 20260505090517 | 55 | 21 | 3.0 | 5.0 | 0.00 | 0.02 | 0.01 | 97 | 990.1 |
| 20260505085519 | 54 | 49 | 6.0 | 9.0 | 0.00 | 0.02 | 0.01 | 97 | 990.0 |
| 20260505084520 | 54 | 37 | 5.0 | 10.0 | 0.00 | 0.02 | 0.01 | 97 | 990.0 |
| 20260505083541 | 54 | 44 | 4.0 | 9.0 | 0.00 | 0.02 | 0.01 | 98 | 990.0 |
| 20260505082527 | 54 | 43 | 5.0 | 10.0 | 0.00 | 0.02 | 0.01 | 98 | 990.1 |
| 20260505081518 | 54 | 40 | 5.0 | 9.0 | 0.00 | 0.02 | 0.01 | 98 | 990.0 |
| 20260505080519 | 54 | 42 | 4.0 | 8.0 | 0.00 | 0.02 | 0.01 | 97 | 990.1 |
| 20260505075520 | 54 | 41 | 5.0 | 8.0 | 0.00 | 0.03 | 0.01 | 97 | 990.2 |
| 20260505074516 | 54 | 27 | 4.0 | 7.0 | 0.00 | 0.04 | 0.01 | 97 | 990.2 |
| 20260505073517 | 54 | 47 | 4.0 | 8.0 | 0.00 | 0.05 | 0.01 | 96 | 990.2 |
| 20260505072558 | 55 | 35 | 4.0 | 8.0 | 0.00 | 0.05 | 0.01 | 95 | 990.3 |
| 20260505071519 | 55 | 28 | 4.0 | 8.0 | 0.00 | 0.06 | 0.01 | 95 | 990.2 |
| 20260505070520 | 56 | 38 | 3.0 | 6.0 | 0.00 | 0.06 | 0.01 | 95 | 990.2 |
| 20260505065516 | 56 | 49 | 6.0 | 11.0 | 0.00 | 0.06 | 0.01 | 95 | 990.3 |
| 20260505064517 | 56 | 43 | 5.0 | 9.0 | 0.00 | 0.06 | 0.01 | 95 | 990.3 |
| 20260505063518 | 56 | 31 | 5.0 | 11.0 | 0.00 | 0.06 | 0.01 | 95 | 990.3 |
| 20260505062519 | 56 | 37 | 4.0 | 8.0 | 0.01 | 0.06 | 0.01 | 95 | 990.3 |
| 20260505061540 | 56 | 36 | 5.0 | 11.0 | 0.01 | 0.06 | 0.01 | 96 | 990.3 |
| 20260505060536 | 56 | 40 | 5.0 | 8.0 | 0.01 | 0.06 | 0.01 | 96 | 990.4 |
| 20260505055517 | 56 | 38 | 5.0 | 11.0 | 0.01 | 0.06 | 0.01 | 96 | 990.4 |
| 20260505054538 | 56 | 32 | 5.0 | 10.0 | 0.01 | 0.06 | 0.01 | 96 | 990.4 |
| 20260505053519 | 56 | 38 | 4.0 | 9.0 | 0.01 | 0.06 | 0.01 | 96 | 990.4 |
| 20260505052540 | 56 | 38 | 4.0 | 8.0 | 0.00 | 0.06 | 0.00 | 96 | 990.4 |
| 20260505051516 | 55 | 33 | 4.0 | 8.0 | 0.00 | 0.06 | 0.00 | 96 | 990.5 |
| 20260505050518 | 55 | 36 | 4.0 | 8.0 | 0.00 | 0.06 | 0.00 | 96 | 990.5 |
| 20260505041517 | 56 | 41 | 3.0 | 5.0 | 0.00 | 0.06 | 0.00 | 97 | 990.6 |
| 20260505040538 | 56 | 35 | 2.0 | 5.0 | 0.00 | 0.06 | 0.00 | 97 | 990.7 |
| 20260505035519 | 56 | 35 | 2.0 | 5.0 | 0.00 | 0.06 | 0.00 | 97 | 990.7 |
| 20260505034515 | 56 | 41 | 3.0 | 7.0 | 0.00 | 0.06 | 0.00 | 97 | 990.7 |
| 20260505033516 | 56 | 36 | 4.0 | 8.0 | 0.00 | 0.06 | 0.00 | 96 | 990.8 |
| 20260505032518 | 56 | 42 | 5.0 | 10.0 | 0.00 | 0.06 | 0.00 | 96 | 990.9 |
| 20260505031519 | 56 | 42 | 4.0 | 8.0 | 0.00 | 0.06 | 0.00 | 96 | 991.0 |
| 20260505030520 | 56 | 37 | 4.0 | 6.0 | 0.00 | 0.06 | 0.00 | 97 | 991.2 |
| 20260505025515 | 56 | 39 | 4.0 | 8.0 | 0.00 | 0.06 | 0.00 | 97 | 991.3 |
| 20260505024517 | 56 | 28 | 1.0 | 3.0 | 0.00 | 0.06 | 0.00 | 97 | 991.6 |
| 20260505023518 | 56 | 6 | 0.0 | 2.0 | 0.00 | 0.06 | 0.00 | 97 | 991.8 |
| 20260505022519 | 56 | 322 | 0.0 | 1.0 | 0.00 | 0.06 | 0.00 | 97 | 991.7 |
| 20260505021515 | 56 | 0.0 | 0.0 | 0.00 | 0.06 | 0.00 | 97 | 991.5 | |
| 20260505020516 | 56 | 53 | 1.0 | 4.0 | 0.00 | 0.06 | 0.00 | 97 | 991.5 |
| 20260505015517 | 56 | 0 | 1.0 | 5.0 | 0.00 | 0.06 | 0.00 | 97 | 991.5 |
| 20260505014519 | 56 | 39 | 2.0 | 4.0 | 0.00 | 0.06 | 0.00 | 97 | 991.7 |
| 20260505013540 | 56 | 58 | 3.0 | 6.0 | 0.00 | 0.06 | 0.00 | 97 | 991.8 |
| 20260505012516 | 56 | 51 | 5.0 | 8.0 | 0.00 | 0.06 | 0.00 | 97 | 991.9 |
| 20260505011517 | 56 | 33 | 3.0 | 4.0 | 0.00 | 0.06 | 0.00 | 97 | 992.1 |
| 20260505010518 | 56 | 34 | 2.0 | 4.0 | 0.00 | 0.06 | 0.00 | 97 | 992.1 |
| 20260505005519 | 56 | 39 | 3.0 | 7.0 | 0.00 | 0.06 | 0.00 | 97 | 992.1 |
| 20260505004520 | 56 | 43 | 3.0 | 6.0 | 0.00 | 0.06 | 0.00 | 97 | 992.0 |
| 20260505003516 | 56 | 28 | 3.0 | 8.0 | 0.00 | 0.06 | 0.00 | 97 | 992.1 |
| 20260505002537 | 56 | 39 | 3.0 | 5.0 | 0.00 | 0.06 | 0.00 | 97 | 992.2 |
| 20260505001518 | 56 | 34 | 2.0 | 4.0 | 0.00 | 0.06 | 0.00 | 98 | 992.3 |
| 20260505000519 | 56 | 36 | 3.0 | 6.0 | 0.00 | 0.06 | 0.00 | 98 | 992.2 |
| 20260504235515 | 56 | 59 | 0.0 | 2.0 | 0.00 | 0.06 | 0.00 | 98 | 992.2 |
| 20260504234517 | 55 | 54 | 1.0 | 3.0 | 0.00 | 0.06 | 0.00 | 97 | 992.2 |
| 20260504233518 | 56 | 29 | 1.0 | 4.0 | 0.00 | 0.06 | 0.00 | 97 | 992.2 |
| 20260504232519 | 56 | 39 | 1.0 | 4.0 | 0.00 | 0.06 | 0.00 | 97 | 992.2 |
| 20260504231535 | 56 | 7 | 2.0 | 6.0 | 0.00 | 0.06 | 0.00 | 97 | 992.3 |
| 20260504230516 | 56 | 40 | 4.0 | 6.0 | 0.00 | 0.06 | 0.00 | 97 | 992.4 |
| 20260504225537 | 56 | 9 | 2.0 | 6.0 | 0.00 | 0.06 | 0.00 | 97 | 992.6 |
| 20260504224518 | 56 | 42 | 2.0 | 4.0 | 0.00 | 0.06 | 0.00 | 97 | 992.7 |
| 20260504223520 | 56 | 55 | 2.0 | 3.0 | 0.00 | 0.06 | 0.00 | 97 | 992.9 |
| 20260504222521 | 57 | 0.0 | 0.0 | 0.00 | 0.06 | 0.00 | 97 | 993.0 | |
| 20260504221517 | 57 | 0.0 | 0.0 | 0.00 | 0.06 | 0.00 | 97 | 993.1 | |
| 20260504220518 | 57 | 48 | 0.0 | 1.0 | 0.00 | 0.06 | 0.00 | 97 | 993.2 |
| 20260504215559 | 57 | 27 | 1.0 | 3.0 | 0.00 | 0.06 | 0.06 | 97 | 993.3 |
| 20260504214520 | 57 | 9 | 0.0 | 2.0 | 0.00 | 0.06 | 0.06 | 97 | 993.3 |
| 20260504213556 | 57 | 0.0 | 0.0 | 0.00 | 0.06 | 0.06 | 97 | 993.4 | |
| 20260504212538 | 57 | 49 | 0.0 | 2.0 | 0.00 | 0.06 | 0.06 | 97 | 993.4 |
| 20260504211519 | 57 | 357 | 0.0 | 2.0 | 0.00 | 0.06 | 0.06 | 97 | 993.5 |
| 20260504210520 | 57 | 1 | 1.0 | 2.0 | 0.00 | 0.06 | 0.06 | 97 | 993.5 |
| 20260504205516 | 56 | 5 | 0.0 | 2.0 | 0.00 | 0.06 | 0.06 | 96 | 993.5 |
| 20260504204518 | 57 | 36 | 0.0 | 1.0 | 0.00 | 0.06 | 0.06 | 96 | 993.5 |
| 20260504203520 | 57 | 0.0 | 0.0 | 0.00 | 0.06 | 0.06 | 96 | 993.6 | |
| 20260504202521 | 57 | 0.0 | 0.0 | 0.00 | 0.06 | 0.06 | 96 | 993.5 | |
| 20260504201517 | 57 | 0.0 | 0.0 | 0.00 | 0.06 | 0.06 | 96 | 993.6 | |
| 20260504200518 | 57 | 0.0 | 0.0 | 0.00 | 0.06 | 0.06 | 96 | 993.5 | |
| 20260504195519 | 57 | 0.0 | 0.0 | 0.00 | 0.06 | 0.06 | 95 | 993.5 | |
| 20260504194521 | 57 | 0.0 | 0.0 | 0.00 | 0.06 | 0.06 | 95 | 993.5 | |
| 20260504193517 | 58 | 0.0 | 0.0 | 0.00 | 0.06 | 0.06 | 95 | 993.5 | |
| 20260504192538 | 58 | 0.0 | 0.0 | 0.00 | 0.06 | 0.06 | 95 | 993.5 | |
| 20260504191519 | 58 | 0.0 | 0.0 | 0.00 | 0.06 | 0.06 | 95 | 993.5 | |
| 20260504190515 | 58 | 0.0 | 0.0 | 0.00 | 0.06 | 0.06 | 95 | 993.4 | |
| 20260504185516 | 58 | 0.0 | 0.0 | 0.01 | 0.06 | 0.06 | 94 | 993.4 | |
| 20260504184518 | 59 | 0.0 | 0.0 | 0.01 | 0.06 | 0.06 | 94 | 993.4 | |
| 20260504183539 | 59 | 0.0 | 0.0 | 0.01 | 0.06 | 0.06 | 94 | 993.4 | |
| 20260504182515 | 59 | 0.0 | 0.0 | 0.01 | 0.06 | 0.06 | 94 | 993.3 | |
| 20260504181516 | 59 | 0.0 | 0.0 | 0.01 | 0.09 | 0.06 | 93 | 993.3 | |
| 20260504180517 | 59 | 0.0 | 0.0 | 0.01 | 0.13 | 0.06 | 93 | 993.2 | |
| 20260504175519 | 59 | 0.0 | 0.0 | 0.00 | 0.12 | 0.06 | 93 | 993.3 | |
| 20260504174520 | 59 | 0.0 | 1.0 | 0.00 | 0.12 | 0.06 | 92 | 993.2 | |
| 20260504173516 | 59 | 0.0 | 0.0 | 0.00 | 0.12 | 0.06 | 92 | 993.2 | |
| 20260504172517 | 59 | 158 | 0.0 | 1.0 | 0.00 | 0.12 | 0.06 | 90 | 993.1 |
| 20260504171538 | 60 | 158 | 0.0 | 1.0 | 0.00 | 0.12 | 0.06 | 89 | 993.2 |
| 20260504170519 | 60 | 158 | 0.0 | 1.0 | 0.00 | 0.12 | 0.06 | 89 | 993.2 |
| 20260504150517 | 62 | 57 | 1.0 | 4.0 | 0.00 | 0.12 | 0.06 | 84 | 993.4 |
| 20260504140519 | 63 | 173 | 1.0 | 4.0 | 0.00 | 0.12 | 0.06 | 83 | 993.6 |
| 20260504130516 | 63 | 121 | 2.0 | 5.0 | 0.00 | 0.12 | 0.06 | 83 | 993.8 |